Data supplied by UK-AIR on 5/4/2008
All Data GMT hour ending 
Status: R =Ratified P=Provisional,P*=As supplied
,,Cambridge Roadside,,,,,,,,,,,,,,,,,,,,,,,
Date,time,"Nitric oxide",status,unit,"Nitrogen dioxide",status,unit,"Nitrogen oxides as nitrogen dioxide",status,unit
 
01-01-2003,01:00,11,R,ugm-3,23,R,ugm-3,40,R,ugm-3
01-01-2003,02:00,14,R,ugm-3,27,R,ugm-3,48,R,ugm-3
01-01-2003,03:00,8,R,ugm-3,23,R,ugm-3,34,R,ugm-3
01-01-2003,04:00,5,R,ugm-3,19,R,ugm-3,27,R,ugm-3
01-01-2003,05:00,5,R,ugm-3,21,R,ugm-3,29,R,ugm-3
01-01-2003,06:00,1,R,ugm-3,10,R,ugm-3,11,R,ugm-3
01-01-2003,07:00,4,R,ugm-3,13,R,ugm-3,19,R,ugm-3
01-01-2003,08:00,4,R,ugm-3,11,R,ugm-3,17,R,ugm-3
01-01-2003,09:00,3,R,ugm-3,11,R,ugm-3,15,R,ugm-3
01-01-2003,10:00,5,R,ugm-3,15,R,ugm-3,23,R,ugm-3
01-01-2003,11:00,11,R,ugm-3,21,R,ugm-3,38,R,ugm-3
01-01-2003,12:00,16,R,ugm-3,27,R,ugm-3,52,R,ugm-3
01-01-2003,13:00,20,R,ugm-3,34,R,ugm-3,65,R,ugm-3
01-01-2003,14:00,25,R,ugm-3,38,R,ugm-3,76,R,ugm-3
01-01-2003,15:00,40,R,ugm-3,44,R,ugm-3,105,R,ugm-3
01-01-2003,16:00,21,R,ugm-3,38,R,ugm-3,71,R,ugm-3
01-01-2003,17:00,14,R,ugm-3,34,R,ugm-3,55,R,ugm-3
01-01-2003,18:00,9,R,ugm-3,25,R,ugm-3,38,R,ugm-3
01-01-2003,19:00,15,R,ugm-3,29,R,ugm-3,52,R,ugm-3
01-01-2003,20:00,11,R,ugm-3,31,R,ugm-3,48,R,ugm-3
01-01-2003,21:00,13,R,ugm-3,34,R,ugm-3,53,R,ugm-3
01-01-2003,22:00,10,R,ugm-3,29,R,ugm-3,44,R,ugm-3
01-01-2003,23:00,4,R,ugm-3,25,R,ugm-3,31,R,ugm-3
01-01-2003,24:00,5,R,ugm-3,19,R,ugm-3,27,R,ugm-3
02-01-2003,01:00,3,R,ugm-3,11,R,ugm-3,15,R,ugm-3
02-01-2003,02:00,1,R,ugm-3,11,R,ugm-3,13,R,ugm-3
02-01-2003,03:00,0,R,ugm-3,6,R,ugm-3,6,R,ugm-3
02-01-2003,04:00,1,R,ugm-3,11,R,ugm-3,13,R,ugm-3
02-01-2003,05:00,1,R,ugm-3,15,R,ugm-3,17,R,ugm-3
02-01-2003,06:00,5,R,ugm-3,19,R,ugm-3,27,R,ugm-3
02-01-2003,07:00,21,R,ugm-3,42,R,ugm-3,74,R,ugm-3
02-01-2003,08:00,59,R,ugm-3,61,R,ugm-3,151,R,ugm-3
02-01-2003,09:00,59,R,ugm-3,59,R,ugm-3,149,R,ugm-3
02-01-2003,10:00,35,R,ugm-3,52,R,ugm-3,105,R,ugm-3
02-01-2003,11:00,26,R,ugm-3,46,R,ugm-3,86,R,ugm-3
02-01-2003,12:00,28,R,ugm-3,44,R,ugm-3,86,R,ugm-3
02-01-2003,13:00,50,R,ugm-3,57,R,ugm-3,134,R,ugm-3
02-01-2003,14:00,76,R,ugm-3,67,R,ugm-3,183,R,ugm-3
02-01-2003,15:00,108,R,ugm-3,74,R,ugm-3,239,R,ugm-3
02-01-2003,16:00,91,R,ugm-3,67,R,ugm-3,206,R,ugm-3
02-01-2003,17:00,86,R,ugm-3,61,R,ugm-3,193,R,ugm-3
02-01-2003,18:00,74,R,ugm-3,55,R,ugm-3,168,R,ugm-3
02-01-2003,19:00,83,R,ugm-3,61,R,ugm-3,187,R,ugm-3
02-01-2003,20:00,36,R,ugm-3,46,R,ugm-3,101,R,ugm-3
02-01-2003,21:00,39,R,ugm-3,55,R,ugm-3,115,R,ugm-3
02-01-2003,22:00,43,R,ugm-3,55,R,ugm-3,120,R,ugm-3
02-01-2003,23:00,48,R,ugm-3,46,R,ugm-3,118,R,ugm-3
02-01-2003,24:00,16,R,ugm-3,29,R,ugm-3,53,R,ugm-3
03-01-2003,01:00,11,R,ugm-3,27,R,ugm-3,44,R,ugm-3
03-01-2003,02:00,9,R,ugm-3,31,R,ugm-3,44,R,ugm-3
03-01-2003,03:00,5,R,ugm-3,25,R,ugm-3,32,R,ugm-3
03-01-2003,04:00,5,R,ugm-3,25,R,ugm-3,32,R,ugm-3
03-01-2003,05:00,16,R,ugm-3,27,R,ugm-3,52,R,ugm-3
03-01-2003,06:00,20,R,ugm-3,25,R,ugm-3,55,R,ugm-3
03-01-2003,07:00,50,R,ugm-3,34,R,ugm-3,111,R,ugm-3
03-01-2003,08:00,35,R,ugm-3,31,R,ugm-3,84,R,ugm-3
03-01-2003,09:00,40,R,ugm-3,32,R,ugm-3,94,R,ugm-3
03-01-2003,10:00,30,R,ugm-3,29,R,ugm-3,74,R,ugm-3
03-01-2003,11:00,45,R,ugm-3,40,R,ugm-3,109,R,ugm-3
03-01-2003,12:00,33,R,ugm-3,36,R,ugm-3,86,R,ugm-3
03-01-2003,13:00,31,R,ugm-3,36,R,ugm-3,84,R,ugm-3
03-01-2003,14:00,25,R,ugm-3,38,R,ugm-3,76,R,ugm-3
03-01-2003,15:00,25,R,ugm-3,38,R,ugm-3,76,R,ugm-3
03-01-2003,16:00,36,R,ugm-3,50,R,ugm-3,105,R,ugm-3
03-01-2003,17:00,61,R,ugm-3,59,R,ugm-3,153,R,ugm-3
03-01-2003,18:00,120,R,ugm-3,71,R,ugm-3,254,R,ugm-3
03-01-2003,19:00,59,R,ugm-3,46,R,ugm-3,136,R,ugm-3
03-01-2003,20:00,28,R,ugm-3,42,R,ugm-3,84,R,ugm-3
03-01-2003,21:00,28,R,ugm-3,44,R,ugm-3,86,R,ugm-3
03-01-2003,22:00,34,R,ugm-3,46,R,ugm-3,97,R,ugm-3
03-01-2003,23:00,43,R,ugm-3,48,R,ugm-3,113,R,ugm-3
03-01-2003,24:00,36,R,ugm-3,42,R,ugm-3,97,R,ugm-3
04-01-2003,01:00,13,R,ugm-3,32,R,ugm-3,52,R,ugm-3
04-01-2003,02:00,6,R,ugm-3,27,R,ugm-3,36,R,ugm-3
04-01-2003,03:00,5,R,ugm-3,21,R,ugm-3,29,R,ugm-3
04-01-2003,04:00,1,R,ugm-3,15,R,ugm-3,17,R,ugm-3
04-01-2003,05:00,1,R,ugm-3,17,R,ugm-3,19,R,ugm-3
04-01-2003,06:00,4,R,ugm-3,17,R,ugm-3,23,R,ugm-3
04-01-2003,07:00,11,R,ugm-3,23,R,ugm-3,40,R,ugm-3
04-01-2003,08:00,21,R,ugm-3,36,R,ugm-3,69,R,ugm-3
04-01-2003,09:00,34,R,ugm-3,48,R,ugm-3,99,R,ugm-3
04-01-2003,10:00,35,R,ugm-3,46,R,ugm-3,99,R,ugm-3
04-01-2003,11:00,39,R,ugm-3,42,R,ugm-3,101,R,ugm-3
04-01-2003,12:00,30,R,ugm-3,38,R,ugm-3,84,R,ugm-3
04-01-2003,13:00,59,R,ugm-3,52,R,ugm-3,141,R,ugm-3
04-01-2003,14:00,90,R,ugm-3,55,R,ugm-3,193,R,ugm-3
04-01-2003,15:00,86,R,ugm-3,59,R,ugm-3,191,R,ugm-3
04-01-2003,16:00,116,R,ugm-3,67,R,ugm-3,244,R,ugm-3
04-01-2003,17:00,96,R,ugm-3,69,R,ugm-3,216,R,ugm-3
04-01-2003,18:00,81,R,ugm-3,59,R,ugm-3,183,R,ugm-3
04-01-2003,19:00,69,R,ugm-3,59,R,ugm-3,164,R,ugm-3
04-01-2003,20:00,35,R,ugm-3,44,R,ugm-3,97,R,ugm-3
04-01-2003,21:00,38,R,ugm-3,48,R,ugm-3,105,R,ugm-3
04-01-2003,22:00,38,R,ugm-3,50,R,ugm-3,107,R,ugm-3
04-01-2003,23:00,70,R,ugm-3,55,R,ugm-3,162,R,ugm-3
04-01-2003,24:00,68,R,ugm-3,57,R,ugm-3,160,R,ugm-3
05-01-2003,01:00,35,R,ugm-3,52,R,ugm-3,105,R,ugm-3
05-01-2003,02:00,19,R,ugm-3,46,R,ugm-3,74,R,ugm-3
05-01-2003,03:00,24,R,ugm-3,44,R,ugm-3,80,R,ugm-3
05-01-2003,04:00,15,R,ugm-3,40,R,ugm-3,63,R,ugm-3
05-01-2003,05:00,6,R,ugm-3,36,R,ugm-3,46,R,ugm-3
05-01-2003,06:00,8,R,ugm-3,38,R,ugm-3,50,R,ugm-3
05-01-2003,07:00,16,R,ugm-3,40,R,ugm-3,65,R,ugm-3
05-01-2003,08:00,34,R,ugm-3,44,R,ugm-3,96,R,ugm-3
05-01-2003,09:00,40,R,ugm-3,48,R,ugm-3,109,R,ugm-3
05-01-2003,10:00,38,R,ugm-3,46,R,ugm-3,103,R,ugm-3
05-01-2003,11:00,68,R,ugm-3,48,R,ugm-3,151,R,ugm-3
05-01-2003,12:00,45,R,ugm-3,52,R,ugm-3,120,R,ugm-3
05-01-2003,13:00,56,R,ugm-3,50,R,ugm-3,136,R,ugm-3
05-01-2003,14:00,36,R,ugm-3,44,R,ugm-3,99,R,ugm-3
05-01-2003,15:00,43,R,ugm-3,50,R,ugm-3,115,R,ugm-3
05-01-2003,16:00,48,R,ugm-3,52,R,ugm-3,124,R,ugm-3
05-01-2003,17:00,36,R,ugm-3,52,R,ugm-3,107,R,ugm-3
05-01-2003,18:00,29,R,ugm-3,53,R,ugm-3,97,R,ugm-3
05-01-2003,19:00,46,R,ugm-3,53,R,ugm-3,124,R,ugm-3
05-01-2003,20:00,68,R,ugm-3,55,R,ugm-3,159,R,ugm-3
05-01-2003,21:00,109,R,ugm-3,57,R,ugm-3,223,R,ugm-3
05-01-2003,22:00,66,R,ugm-3,52,R,ugm-3,153,R,ugm-3
05-01-2003,23:00,45,R,ugm-3,50,R,ugm-3,118,R,ugm-3
05-01-2003,24:00,43,R,ugm-3,46,R,ugm-3,111,R,ugm-3
06-01-2003,01:00,29,R,ugm-3,48,R,ugm-3,92,R,ugm-3
06-01-2003,02:00,11,R,ugm-3,38,R,ugm-3,55,R,ugm-3
06-01-2003,03:00,5,R,ugm-3,38,R,ugm-3,46,R,ugm-3
06-01-2003,04:00,8,R,ugm-3,36,R,ugm-3,48,R,ugm-3
06-01-2003,05:00,5,R,ugm-3,34,R,ugm-3,42,R,ugm-3
06-01-2003,06:00,8,R,ugm-3,34,R,ugm-3,46,R,ugm-3
06-01-2003,07:00,20,R,ugm-3,48,R,ugm-3,78,R,ugm-3
06-01-2003,08:00,49,R,ugm-3,65,R,ugm-3,139,R,ugm-3
06-01-2003,09:00,68,R,ugm-3,74,R,ugm-3,178,R,ugm-3
06-01-2003,10:00,75,R,ugm-3,76,R,ugm-3,191,R,ugm-3
06-01-2003,11:00,58,R,ugm-3,65,R,ugm-3,153,R,ugm-3
06-01-2003,12:00,43,R,ugm-3,46,R,ugm-3,111,R,ugm-3
06-01-2003,13:00,46,R,ugm-3,50,R,ugm-3,120,R,ugm-3
06-01-2003,14:00,26,R,ugm-3,44,R,ugm-3,84,R,ugm-3
06-01-2003,15:00,46,R,ugm-3,55,R,ugm-3,126,R,ugm-3
06-01-2003,16:00,45,R,ugm-3,63,R,ugm-3,132,R,ugm-3
06-01-2003,17:00,61,R,ugm-3,74,R,ugm-3,168,R,ugm-3
06-01-2003,18:00,51,R,ugm-3,61,R,ugm-3,139,R,ugm-3
06-01-2003,19:00,29,R,ugm-3,46,R,ugm-3,90,R,ugm-3
06-01-2003,20:00,13,R,ugm-3,38,R,ugm-3,57,R,ugm-3
06-01-2003,21:00,10,R,ugm-3,36,R,ugm-3,52,R,ugm-3
06-01-2003,22:00,9,R,ugm-3,34,R,ugm-3,48,R,ugm-3
06-01-2003,23:00,6,R,ugm-3,27,R,ugm-3,36,R,ugm-3
06-01-2003,24:00,5,R,ugm-3,29,R,ugm-3,36,R,ugm-3
07-01-2003,01:00,3,R,ugm-3,15,R,ugm-3,19,R,ugm-3
07-01-2003,02:00,3,R,ugm-3,21,R,ugm-3,25,R,ugm-3
07-01-2003,03:00,1,R,ugm-3,17,R,ugm-3,19,R,ugm-3
07-01-2003,04:00,1,R,ugm-3,21,R,ugm-3,23,R,ugm-3
07-01-2003,05:00,1,R,ugm-3,23,R,ugm-3,25,R,ugm-3
07-01-2003,06:00,4,R,ugm-3,29,R,ugm-3,34,R,ugm-3
07-01-2003,07:00,34,R,ugm-3,48,R,ugm-3,99,R,ugm-3
07-01-2003,08:00,60,R,ugm-3,63,R,ugm-3,155,R,ugm-3
07-01-2003,09:00,83,R,ugm-3,61,R,ugm-3,187,R,ugm-3
07-01-2003,10:00,86,R,ugm-3,69,R,ugm-3,201,R,ugm-3
07-01-2003,11:00,65,R,ugm-3,65,R,ugm-3,164,R,ugm-3
07-01-2003,12:00,36,R,ugm-3,50,R,ugm-3,105,R,ugm-3
07-01-2003,13:00,41,R,ugm-3,52,R,ugm-3,115,R,ugm-3
07-01-2003,14:00,31,R,ugm-3,48,R,ugm-3,96,R,ugm-3
07-01-2003,15:00,34,R,ugm-3,48,R,ugm-3,99,R,ugm-3
07-01-2003,16:00,31,R,ugm-3,50,R,ugm-3,97,R,ugm-3
07-01-2003,17:00,48,R,ugm-3,67,R,ugm-3,139,R,ugm-3
07-01-2003,18:00,56,R,ugm-3,73,R,ugm-3,159,R,ugm-3
07-01-2003,19:00,54,R,ugm-3,65,R,ugm-3,147,R,ugm-3
07-01-2003,20:00,38,R,ugm-3,63,R,ugm-3,120,R,ugm-3
07-01-2003,21:00,33,R,ugm-3,61,R,ugm-3,111,R,ugm-3
07-01-2003,22:00,26,R,ugm-3,55,R,ugm-3,96,R,ugm-3
07-01-2003,23:00,24,R,ugm-3,53,R,ugm-3,90,R,ugm-3
07-01-2003,24:00,16,R,ugm-3,44,R,ugm-3,69,R,ugm-3
08-01-2003,01:00,5,R,ugm-3,36,R,ugm-3,44,R,ugm-3
08-01-2003,02:00,5,R,ugm-3,42,R,ugm-3,50,R,ugm-3
08-01-2003,03:00,4,R,ugm-3,40,R,ugm-3,46,R,ugm-3
08-01-2003,04:00,4,R,ugm-3,38,R,ugm-3,44,R,ugm-3
08-01-2003,05:00,4,R,ugm-3,38,R,ugm-3,44,R,ugm-3
08-01-2003,06:00,8,R,ugm-3,36,R,ugm-3,48,R,ugm-3
08-01-2003,07:00,26,R,ugm-3,50,R,ugm-3,90,R,ugm-3
08-01-2003,08:00,75,R,ugm-3,61,R,ugm-3,176,R,ugm-3
08-01-2003,09:00,116,R,ugm-3,69,R,ugm-3,246,R,ugm-3
08-01-2003,10:00,88,R,ugm-3,61,R,ugm-3,195,R,ugm-3
08-01-2003,11:00,,,,,,,,,
08-01-2003,12:00,81,R,ugm-3,63,R,ugm-3,187,R,ugm-3
08-01-2003,13:00,74,R,ugm-3,59,R,ugm-3,172,R,ugm-3
08-01-2003,14:00,53,R,ugm-3,55,R,ugm-3,136,R,ugm-3
08-01-2003,15:00,55,R,ugm-3,61,R,ugm-3,145,R,ugm-3
08-01-2003,16:00,53,R,ugm-3,59,R,ugm-3,139,R,ugm-3
08-01-2003,17:00,75,R,ugm-3,69,R,ugm-3,183,R,ugm-3
08-01-2003,18:00,64,R,ugm-3,65,R,ugm-3,162,R,ugm-3
08-01-2003,19:00,54,R,ugm-3,59,R,ugm-3,141,R,ugm-3
08-01-2003,20:00,24,R,ugm-3,50,R,ugm-3,86,R,ugm-3
08-01-2003,21:00,23,R,ugm-3,50,R,ugm-3,84,R,ugm-3
08-01-2003,22:00,14,R,ugm-3,40,R,ugm-3,61,R,ugm-3
08-01-2003,23:00,11,R,ugm-3,38,R,ugm-3,55,R,ugm-3
08-01-2003,24:00,11,R,ugm-3,34,R,ugm-3,52,R,ugm-3
09-01-2003,01:00,3,R,ugm-3,19,R,ugm-3,23,R,ugm-3
09-01-2003,02:00,1,R,ugm-3,13,R,ugm-3,15,R,ugm-3
09-01-2003,03:00,0,R,ugm-3,11,R,ugm-3,11,R,ugm-3
09-01-2003,04:00,0,R,ugm-3,11,R,ugm-3,11,R,ugm-3
09-01-2003,05:00,1,R,ugm-3,11,R,ugm-3,13,R,ugm-3
09-01-2003,06:00,3,R,ugm-3,17,R,ugm-3,21,R,ugm-3
09-01-2003,07:00,10,R,ugm-3,32,R,ugm-3,48,R,ugm-3
09-01-2003,08:00,25,R,ugm-3,52,R,ugm-3,90,R,ugm-3
09-01-2003,09:00,58,R,ugm-3,63,R,ugm-3,151,R,ugm-3
09-01-2003,10:00,44,R,ugm-3,53,R,ugm-3,120,R,ugm-3
09-01-2003,11:00,43,R,ugm-3,46,R,ugm-3,111,R,ugm-3
09-01-2003,12:00,36,R,ugm-3,44,R,ugm-3,99,R,ugm-3
09-01-2003,13:00,40,R,ugm-3,46,R,ugm-3,107,R,ugm-3
09-01-2003,14:00,29,R,ugm-3,42,R,ugm-3,86,R,ugm-3
09-01-2003,15:00,31,R,ugm-3,42,R,ugm-3,90,R,ugm-3
09-01-2003,16:00,41,R,ugm-3,53,R,ugm-3,117,R,ugm-3
09-01-2003,17:00,61,R,ugm-3,67,R,ugm-3,160,R,ugm-3
09-01-2003,18:00,79,R,ugm-3,71,R,ugm-3,191,R,ugm-3
09-01-2003,19:00,96,R,ugm-3,67,R,ugm-3,214,R,ugm-3
09-01-2003,20:00,43,R,ugm-3,59,R,ugm-3,124,R,ugm-3
09-01-2003,21:00,28,R,ugm-3,50,R,ugm-3,92,R,ugm-3
09-01-2003,22:00,16,R,ugm-3,38,R,ugm-3,63,R,ugm-3
09-01-2003,23:00,14,R,ugm-3,34,R,ugm-3,55,R,ugm-3
09-01-2003,24:00,16,R,ugm-3,34,R,ugm-3,59,R,ugm-3
10-01-2003,01:00,8,R,ugm-3,29,R,ugm-3,40,R,ugm-3
10-01-2003,02:00,9,R,ugm-3,32,R,ugm-3,46,R,ugm-3
10-01-2003,03:00,9,R,ugm-3,27,R,ugm-3,40,R,ugm-3
10-01-2003,04:00,1,R,ugm-3,15,R,ugm-3,17,R,ugm-3
10-01-2003,05:00,5,R,ugm-3,17,R,ugm-3,25,R,ugm-3
10-01-2003,06:00,4,R,ugm-3,23,R,ugm-3,29,R,ugm-3
10-01-2003,07:00,23,R,ugm-3,34,R,ugm-3,69,R,ugm-3
10-01-2003,08:00,55,R,ugm-3,50,R,ugm-3,134,R,ugm-3
10-01-2003,09:00,96,R,ugm-3,63,R,ugm-3,210,R,ugm-3
10-01-2003,10:00,83,R,ugm-3,65,R,ugm-3,191,R,ugm-3
10-01-2003,11:00,91,R,ugm-3,61,R,ugm-3,201,R,ugm-3
10-01-2003,12:00,71,R,ugm-3,59,R,ugm-3,168,R,ugm-3
10-01-2003,13:00,103,R,ugm-3,69,R,ugm-3,225,R,ugm-3
10-01-2003,14:00,69,R,ugm-3,61,R,ugm-3,166,R,ugm-3
10-01-2003,15:00,63,R,ugm-3,59,R,ugm-3,155,R,ugm-3
10-01-2003,16:00,80,R,ugm-3,61,R,ugm-3,183,R,ugm-3
10-01-2003,17:00,68,R,ugm-3,63,R,ugm-3,166,R,ugm-3
10-01-2003,18:00,53,R,ugm-3,61,R,ugm-3,141,R,ugm-3
10-01-2003,19:00,40,R,ugm-3,57,R,ugm-3,118,R,ugm-3
10-01-2003,20:00,25,R,ugm-3,52,R,ugm-3,90,R,ugm-3
10-01-2003,21:00,18,R,ugm-3,50,R,ugm-3,76,R,ugm-3
10-01-2003,22:00,13,R,ugm-3,46,R,ugm-3,65,R,ugm-3
10-01-2003,23:00,19,R,ugm-3,44,R,ugm-3,73,R,ugm-3
10-01-2003,24:00,28,R,ugm-3,53,R,ugm-3,96,R,ugm-3
11-01-2003,01:00,14,R,ugm-3,50,R,ugm-3,71,R,ugm-3
11-01-2003,02:00,20,R,ugm-3,57,R,ugm-3,88,R,ugm-3
11-01-2003,03:00,23,R,ugm-3,52,R,ugm-3,86,R,ugm-3
11-01-2003,04:00,18,R,ugm-3,50,R,ugm-3,76,R,ugm-3
11-01-2003,05:00,14,R,ugm-3,46,R,ugm-3,67,R,ugm-3
11-01-2003,06:00,20,R,ugm-3,48,R,ugm-3,78,R,ugm-3
11-01-2003,07:00,78,R,ugm-3,55,R,ugm-3,174,R,ugm-3
11-01-2003,08:00,203,R,ugm-3,74,R,ugm-3,384,R,ugm-3
11-01-2003,09:00,326,R,ugm-3,92,R,ugm-3,590,R,ugm-3
11-01-2003,10:00,336,R,ugm-3,92,R,ugm-3,605,R,ugm-3
11-01-2003,11:00,384,R,ugm-3,101,R,ugm-3,688,R,ugm-3
11-01-2003,12:00,236,R,ugm-3,86,R,ugm-3,447,R,ugm-3
11-01-2003,13:00,155,R,ugm-3,74,R,ugm-3,311,R,ugm-3
11-01-2003,14:00,141,R,ugm-3,73,R,ugm-3,288,R,ugm-3
11-01-2003,15:00,165,R,ugm-3,74,R,ugm-3,327,R,ugm-3
11-01-2003,16:00,180,R,ugm-3,84,R,ugm-3,359,R,ugm-3
11-01-2003,17:00,249,R,ugm-3,94,R,ugm-3,474,R,ugm-3
11-01-2003,18:00,276,R,ugm-3,97,R,ugm-3,520,R,ugm-3
11-01-2003,19:00,255,R,ugm-3,96,R,ugm-3,485,R,ugm-3
11-01-2003,20:00,194,R,ugm-3,84,R,ugm-3,380,R,ugm-3
11-01-2003,21:00,124,R,ugm-3,69,R,ugm-3,258,R,ugm-3
11-01-2003,22:00,115,R,ugm-3,67,R,ugm-3,243,R,ugm-3
11-01-2003,23:00,109,R,ugm-3,65,R,ugm-3,231,R,ugm-3
11-01-2003,24:00,116,R,ugm-3,63,R,ugm-3,241,R,ugm-3
12-01-2003,01:00,66,R,ugm-3,61,R,ugm-3,162,R,ugm-3
12-01-2003,02:00,48,R,ugm-3,69,R,ugm-3,141,R,ugm-3
12-01-2003,03:00,39,R,ugm-3,63,R,ugm-3,122,R,ugm-3
12-01-2003,04:00,39,R,ugm-3,55,R,ugm-3,115,R,ugm-3
12-01-2003,05:00,23,R,ugm-3,48,R,ugm-3,82,R,ugm-3
12-01-2003,06:00,18,R,ugm-3,46,R,ugm-3,73,R,ugm-3
12-01-2003,07:00,35,R,ugm-3,46,R,ugm-3,99,R,ugm-3
12-01-2003,08:00,34,R,ugm-3,52,R,ugm-3,103,R,ugm-3
12-01-2003,09:00,29,R,ugm-3,44,R,ugm-3,88,R,ugm-3
12-01-2003,10:00,36,R,ugm-3,44,R,ugm-3,99,R,ugm-3
12-01-2003,11:00,63,R,ugm-3,50,R,ugm-3,145,R,ugm-3
12-01-2003,12:00,71,R,ugm-3,52,R,ugm-3,160,R,ugm-3
12-01-2003,13:00,84,R,ugm-3,57,R,ugm-3,185,R,ugm-3
12-01-2003,14:00,66,R,ugm-3,55,R,ugm-3,157,R,ugm-3
12-01-2003,15:00,60,R,ugm-3,50,R,ugm-3,141,R,ugm-3
12-01-2003,16:00,59,R,ugm-3,57,R,ugm-3,147,R,ugm-3
12-01-2003,17:00,55,R,ugm-3,57,R,ugm-3,141,R,ugm-3
12-01-2003,18:00,49,R,ugm-3,48,R,ugm-3,122,R,ugm-3
12-01-2003,19:00,26,R,ugm-3,44,R,ugm-3,84,R,ugm-3
12-01-2003,20:00,26,R,ugm-3,44,R,ugm-3,84,R,ugm-3
12-01-2003,21:00,21,R,ugm-3,38,R,ugm-3,71,R,ugm-3
12-01-2003,22:00,15,R,ugm-3,31,R,ugm-3,53,R,ugm-3
12-01-2003,23:00,13,R,ugm-3,27,R,ugm-3,46,R,ugm-3
12-01-2003,24:00,10,R,ugm-3,21,R,ugm-3,36,R,ugm-3
13-01-2003,01:00,3,R,ugm-3,17,R,ugm-3,21,R,ugm-3
13-01-2003,02:00,3,R,ugm-3,19,R,ugm-3,23,R,ugm-3
13-01-2003,03:00,3,R,ugm-3,13,R,ugm-3,17,R,ugm-3
13-01-2003,04:00,1,R,ugm-3,10,R,ugm-3,11,R,ugm-3
13-01-2003,05:00,4,R,ugm-3,17,R,ugm-3,23,R,ugm-3
13-01-2003,06:00,5,R,ugm-3,21,R,ugm-3,29,R,ugm-3
13-01-2003,07:00,23,R,ugm-3,36,R,ugm-3,71,R,ugm-3
13-01-2003,08:00,43,R,ugm-3,52,R,ugm-3,117,R,ugm-3
13-01-2003,09:00,65,R,ugm-3,59,R,ugm-3,159,R,ugm-3
13-01-2003,10:00,60,R,ugm-3,53,R,ugm-3,145,R,ugm-3
13-01-2003,11:00,55,R,ugm-3,50,R,ugm-3,134,R,ugm-3
13-01-2003,12:00,59,R,ugm-3,55,R,ugm-3,145,R,ugm-3
13-01-2003,13:00,60,R,ugm-3,46,R,ugm-3,138,R,ugm-3
13-01-2003,14:00,59,R,ugm-3,50,R,ugm-3,139,R,ugm-3
13-01-2003,15:00,69,R,ugm-3,55,R,ugm-3,160,R,ugm-3
13-01-2003,16:00,70,R,ugm-3,59,R,ugm-3,166,R,ugm-3
13-01-2003,17:00,80,R,ugm-3,59,R,ugm-3,181,R,ugm-3
13-01-2003,18:00,66,R,ugm-3,55,R,ugm-3,157,R,ugm-3
13-01-2003,19:00,48,R,ugm-3,46,R,ugm-3,118,R,ugm-3
13-01-2003,20:00,26,R,ugm-3,44,R,ugm-3,84,R,ugm-3
13-01-2003,21:00,18,R,ugm-3,36,R,ugm-3,63,R,ugm-3
13-01-2003,22:00,19,R,ugm-3,34,R,ugm-3,63,R,ugm-3
13-01-2003,23:00,11,R,ugm-3,27,R,ugm-3,44,R,ugm-3
13-01-2003,24:00,9,R,ugm-3,21,R,ugm-3,34,R,ugm-3
14-01-2003,01:00,4,R,ugm-3,17,R,ugm-3,23,R,ugm-3
14-01-2003,02:00,1,R,ugm-3,15,R,ugm-3,17,R,ugm-3
14-01-2003,03:00,1,R,ugm-3,11,R,ugm-3,13,R,ugm-3
14-01-2003,04:00,1,R,ugm-3,8,R,ugm-3,10,R,ugm-3
14-01-2003,05:00,0,R,ugm-3,8,R,ugm-3,8,R,ugm-3
14-01-2003,06:00,4,R,ugm-3,13,R,ugm-3,19,R,ugm-3
14-01-2003,07:00,31,R,ugm-3,25,R,ugm-3,73,R,ugm-3
14-01-2003,08:00,51,R,ugm-3,46,R,ugm-3,124,R,ugm-3
14-01-2003,09:00,91,R,ugm-3,67,R,ugm-3,206,R,ugm-3
14-01-2003,10:00,64,R,ugm-3,53,R,ugm-3,151,R,ugm-3
14-01-2003,11:00,53,R,ugm-3,52,R,ugm-3,132,R,ugm-3
14-01-2003,12:00,53,R,ugm-3,53,R,ugm-3,134,R,ugm-3
14-01-2003,13:00,48,R,ugm-3,46,R,ugm-3,118,R,ugm-3
14-01-2003,14:00,66,R,ugm-3,53,R,ugm-3,155,R,ugm-3
14-01-2003,15:00,60,R,ugm-3,55,R,ugm-3,147,R,ugm-3
14-01-2003,16:00,49,R,ugm-3,53,R,ugm-3,128,R,ugm-3
14-01-2003,17:00,59,R,ugm-3,57,R,ugm-3,147,R,ugm-3
14-01-2003,18:00,74,R,ugm-3,59,R,ugm-3,172,R,ugm-3
14-01-2003,19:00,56,R,ugm-3,50,R,ugm-3,136,R,ugm-3
14-01-2003,20:00,23,R,ugm-3,34,R,ugm-3,69,R,ugm-3
14-01-2003,21:00,13,R,ugm-3,25,R,ugm-3,44,R,ugm-3
14-01-2003,22:00,11,R,ugm-3,21,R,ugm-3,38,R,ugm-3
14-01-2003,23:00,6,R,ugm-3,17,R,ugm-3,27,R,ugm-3
14-01-2003,24:00,6,R,ugm-3,15,R,ugm-3,25,R,ugm-3
15-01-2003,01:00,1,R,ugm-3,8,R,ugm-3,10,R,ugm-3
15-01-2003,02:00,1,R,ugm-3,8,R,ugm-3,10,R,ugm-3
15-01-2003,03:00,1,R,ugm-3,6,R,ugm-3,8,R,ugm-3
15-01-2003,04:00,1,R,ugm-3,13,R,ugm-3,15,R,ugm-3
15-01-2003,05:00,1,R,ugm-3,21,R,ugm-3,23,R,ugm-3
15-01-2003,06:00,3,R,ugm-3,21,R,ugm-3,25,R,ugm-3
15-01-2003,07:00,20,R,ugm-3,21,R,ugm-3,52,R,ugm-3
15-01-2003,08:00,43,R,ugm-3,52,R,ugm-3,117,R,ugm-3
15-01-2003,09:00,55,R,ugm-3,55,R,ugm-3,139,R,ugm-3
15-01-2003,10:00,53,R,ugm-3,52,R,ugm-3,132,R,ugm-3
15-01-2003,11:00,48,R,ugm-3,53,R,ugm-3,126,R,ugm-3
15-01-2003,12:00,41,R,ugm-3,46,R,ugm-3,109,R,ugm-3
15-01-2003,13:00,50,R,ugm-3,44,R,ugm-3,120,R,ugm-3
15-01-2003,14:00,68,R,ugm-3,52,R,ugm-3,155,R,ugm-3
15-01-2003,15:00,79,R,ugm-3,65,R,ugm-3,185,R,ugm-3
15-01-2003,16:00,91,R,ugm-3,69,R,ugm-3,208,R,ugm-3
15-01-2003,17:00,150,R,ugm-3,78,R,ugm-3,308,R,ugm-3
15-01-2003,18:00,113,R,ugm-3,74,R,ugm-3,246,R,ugm-3
15-01-2003,19:00,110,R,ugm-3,69,R,ugm-3,237,R,ugm-3
15-01-2003,20:00,34,R,ugm-3,57,R,ugm-3,109,R,ugm-3
15-01-2003,21:00,63,R,ugm-3,61,R,ugm-3,157,R,ugm-3
15-01-2003,22:00,54,R,ugm-3,59,R,ugm-3,141,R,ugm-3
15-01-2003,23:00,21,R,ugm-3,42,R,ugm-3,74,R,ugm-3
15-01-2003,24:00,6,R,ugm-3,32,R,ugm-3,42,R,ugm-3
16-01-2003,01:00,34,R,ugm-3,38,R,ugm-3,90,R,ugm-3
16-01-2003,02:00,1,R,ugm-3,17,R,ugm-3,19,R,ugm-3
16-01-2003,03:00,1,R,ugm-3,11,R,ugm-3,13,R,ugm-3
16-01-2003,04:00,1,R,ugm-3,11,R,ugm-3,13,R,ugm-3
16-01-2003,05:00,1,R,ugm-3,17,R,ugm-3,19,R,ugm-3
16-01-2003,06:00,1,R,ugm-3,15,R,ugm-3,17,R,ugm-3
16-01-2003,07:00,1,R,ugm-3,19,R,ugm-3,21,R,ugm-3
16-01-2003,08:00,6,R,ugm-3,31,R,ugm-3,40,R,ugm-3
16-01-2003,09:00,38,R,ugm-3,52,R,ugm-3,109,R,ugm-3
16-01-2003,10:00,38,R,ugm-3,52,R,ugm-3,109,R,ugm-3
16-01-2003,11:00,61,R,ugm-3,61,R,ugm-3,155,R,ugm-3
16-01-2003,12:00,39,R,ugm-3,50,R,ugm-3,109,R,ugm-3
16-01-2003,13:00,31,R,ugm-3,44,R,ugm-3,92,R,ugm-3
16-01-2003,14:00,31,R,ugm-3,46,R,ugm-3,94,R,ugm-3
16-01-2003,15:00,35,R,ugm-3,57,R,ugm-3,111,R,ugm-3
16-01-2003,16:00,49,R,ugm-3,63,R,ugm-3,138,R,ugm-3
16-01-2003,17:00,46,R,ugm-3,63,R,ugm-3,134,R,ugm-3
16-01-2003,18:00,29,R,ugm-3,53,R,ugm-3,97,R,ugm-3
16-01-2003,19:00,24,R,ugm-3,52,R,ugm-3,88,R,ugm-3
16-01-2003,20:00,13,R,ugm-3,55,R,ugm-3,74,R,ugm-3
16-01-2003,21:00,8,R,ugm-3,42,R,ugm-3,53,R,ugm-3
16-01-2003,22:00,5,R,ugm-3,31,R,ugm-3,38,R,ugm-3
16-01-2003,23:00,4,R,ugm-3,19,R,ugm-3,25,R,ugm-3
16-01-2003,24:00,3,R,ugm-3,15,R,ugm-3,19,R,ugm-3
17-01-2003,01:00,1,R,ugm-3,29,R,ugm-3,31,R,ugm-3
17-01-2003,02:00,0,R,ugm-3,11,R,ugm-3,11,R,ugm-3
17-01-2003,03:00,0,R,ugm-3,8,R,ugm-3,8,R,ugm-3
17-01-2003,04:00,0,R,ugm-3,8,R,ugm-3,8,R,ugm-3
17-01-2003,05:00,0,R,ugm-3,8,R,ugm-3,8,R,ugm-3
17-01-2003,06:00,1,R,ugm-3,10,R,ugm-3,11,R,ugm-3
17-01-2003,07:00,6,R,ugm-3,19,R,ugm-3,29,R,ugm-3
17-01-2003,08:00,13,R,ugm-3,19,R,ugm-3,38,R,ugm-3
17-01-2003,09:00,11,R,ugm-3,29,R,ugm-3,46,R,ugm-3
17-01-2003,10:00,10,R,ugm-3,23,R,ugm-3,38,R,ugm-3
17-01-2003,11:00,18,R,ugm-3,31,R,ugm-3,57,R,ugm-3
17-01-2003,12:00,25,R,ugm-3,38,R,ugm-3,76,R,ugm-3
17-01-2003,13:00,23,R,ugm-3,34,R,ugm-3,69,R,ugm-3
17-01-2003,14:00,18,R,ugm-3,32,R,ugm-3,59,R,ugm-3
17-01-2003,15:00,15,R,ugm-3,32,R,ugm-3,55,R,ugm-3
17-01-2003,16:00,18,R,ugm-3,38,R,ugm-3,65,R,ugm-3
17-01-2003,17:00,49,R,ugm-3,48,R,ugm-3,122,R,ugm-3
17-01-2003,18:00,74,R,ugm-3,61,R,ugm-3,174,R,ugm-3
17-01-2003,19:00,39,R,ugm-3,52,R,ugm-3,111,R,ugm-3
17-01-2003,20:00,38,R,ugm-3,55,R,ugm-3,113,R,ugm-3
17-01-2003,21:00,23,R,ugm-3,46,R,ugm-3,80,R,ugm-3
17-01-2003,22:00,10,R,ugm-3,42,R,ugm-3,57,R,ugm-3
17-01-2003,23:00,31,R,ugm-3,50,R,ugm-3,97,R,ugm-3
17-01-2003,24:00,16,R,ugm-3,40,R,ugm-3,65,R,ugm-3
18-01-2003,01:00,5,R,ugm-3,36,R,ugm-3,44,R,ugm-3
18-01-2003,02:00,3,R,ugm-3,27,R,ugm-3,31,R,ugm-3
18-01-2003,03:00,4,R,ugm-3,27,R,ugm-3,32,R,ugm-3
18-01-2003,04:00,1,R,ugm-3,21,R,ugm-3,23,R,ugm-3
18-01-2003,05:00,1,R,ugm-3,21,R,ugm-3,23,R,ugm-3
18-01-2003,06:00,1,R,ugm-3,17,R,ugm-3,19,R,ugm-3
18-01-2003,07:00,11,R,ugm-3,31,R,ugm-3,48,R,ugm-3
18-01-2003,08:00,26,R,ugm-3,52,R,ugm-3,92,R,ugm-3
18-01-2003,09:00,34,R,ugm-3,53,R,ugm-3,105,R,ugm-3
18-01-2003,10:00,26,R,ugm-3,46,R,ugm-3,86,R,ugm-3
18-01-2003,11:00,28,R,ugm-3,42,R,ugm-3,84,R,ugm-3
18-01-2003,12:00,25,R,ugm-3,38,R,ugm-3,76,R,ugm-3
18-01-2003,13:00,29,R,ugm-3,46,R,ugm-3,90,R,ugm-3
18-01-2003,14:00,23,R,ugm-3,57,R,ugm-3,92,R,ugm-3
18-01-2003,15:00,21,R,ugm-3,50,R,ugm-3,82,R,ugm-3
18-01-2003,16:00,20,R,ugm-3,42,R,ugm-3,73,R,ugm-3
18-01-2003,17:00,34,R,ugm-3,46,R,ugm-3,97,R,ugm-3
18-01-2003,18:00,33,R,ugm-3,42,R,ugm-3,92,R,ugm-3
18-01-2003,19:00,10,R,ugm-3,36,R,ugm-3,52,R,ugm-3
18-01-2003,20:00,4,R,ugm-3,34,R,ugm-3,40,R,ugm-3
18-01-2003,21:00,5,R,ugm-3,32,R,ugm-3,40,R,ugm-3
18-01-2003,22:00,4,R,ugm-3,25,R,ugm-3,31,R,ugm-3
18-01-2003,23:00,4,R,ugm-3,17,R,ugm-3,23,R,ugm-3
18-01-2003,24:00,5,R,ugm-3,19,R,ugm-3,27,R,ugm-3
19-01-2003,01:00,3,R,ugm-3,17,R,ugm-3,21,R,ugm-3
19-01-2003,02:00,0,R,ugm-3,13,R,ugm-3,13,R,ugm-3
19-01-2003,03:00,0,R,ugm-3,8,R,ugm-3,8,R,ugm-3
19-01-2003,04:00,0,R,ugm-3,8,R,ugm-3,8,R,ugm-3
19-01-2003,05:00,0,R,ugm-3,8,R,ugm-3,8,R,ugm-3
19-01-2003,06:00,0,R,ugm-3,8,R,ugm-3,8,R,ugm-3
19-01-2003,07:00,1,R,ugm-3,10,R,ugm-3,11,R,ugm-3
19-01-2003,08:00,8,R,ugm-3,19,R,ugm-3,31,R,ugm-3
19-01-2003,09:00,9,R,ugm-3,19,R,ugm-3,32,R,ugm-3
19-01-2003,10:00,6,R,ugm-3,23,R,ugm-3,32,R,ugm-3
19-01-2003,11:00,15,R,ugm-3,34,R,ugm-3,57,R,ugm-3
19-01-2003,12:00,13,R,ugm-3,32,R,ugm-3,52,R,ugm-3
19-01-2003,13:00,15,R,ugm-3,31,R,ugm-3,53,R,ugm-3
19-01-2003,14:00,10,R,ugm-3,25,R,ugm-3,40,R,ugm-3
19-01-2003,15:00,10,R,ugm-3,25,R,ugm-3,40,R,ugm-3
19-01-2003,16:00,9,R,ugm-3,27,R,ugm-3,40,R,ugm-3
19-01-2003,17:00,19,R,ugm-3,42,R,ugm-3,71,R,ugm-3
19-01-2003,18:00,19,R,ugm-3,50,R,ugm-3,78,R,ugm-3
19-01-2003,19:00,4,R,ugm-3,38,R,ugm-3,44,R,ugm-3
19-01-2003,20:00,5,R,ugm-3,40,R,ugm-3,48,R,ugm-3
19-01-2003,21:00,6,R,ugm-3,40,R,ugm-3,50,R,ugm-3
19-01-2003,22:00,4,R,ugm-3,34,R,ugm-3,40,R,ugm-3
19-01-2003,23:00,5,R,ugm-3,40,R,ugm-3,48,R,ugm-3
19-01-2003,24:00,4,R,ugm-3,25,R,ugm-3,31,R,ugm-3
20-01-2003,01:00,0,R,ugm-3,15,R,ugm-3,15,R,ugm-3
20-01-2003,02:00,1,R,ugm-3,25,R,ugm-3,27,R,ugm-3
20-01-2003,03:00,1,R,ugm-3,15,R,ugm-3,17,R,ugm-3
20-01-2003,04:00,0,R,ugm-3,11,R,ugm-3,11,R,ugm-3
20-01-2003,05:00,1,R,ugm-3,15,R,ugm-3,17,R,ugm-3
20-01-2003,06:00,6,R,ugm-3,19,R,ugm-3,29,R,ugm-3
20-01-2003,07:00,13,R,ugm-3,17,R,ugm-3,36,R,ugm-3
20-01-2003,08:00,6,R,ugm-3,31,R,ugm-3,40,R,ugm-3
20-01-2003,09:00,6,R,ugm-3,34,R,ugm-3,44,R,ugm-3
20-01-2003,10:00,13,R,ugm-3,32,R,ugm-3,52,R,ugm-3
20-01-2003,11:00,11,R,ugm-3,25,R,ugm-3,42,R,ugm-3
20-01-2003,12:00,9,R,ugm-3,23,R,ugm-3,36,R,ugm-3
20-01-2003,13:00,10,R,ugm-3,25,R,ugm-3,40,R,ugm-3
20-01-2003,14:00,9,R,ugm-3,21,R,ugm-3,34,R,ugm-3
20-01-2003,15:00,10,R,ugm-3,27,R,ugm-3,42,R,ugm-3
20-01-2003,16:00,10,R,ugm-3,29,R,ugm-3,44,R,ugm-3
20-01-2003,17:00,14,R,ugm-3,31,R,ugm-3,52,R,ugm-3